weather.gov     
National Weather Service

Terminal Aerodrome Forecast
NWS Homepage
This page is being discontinued on March 12, 2014.
The same data is available at this site. Please update your bookmarks.
Thank you, and we apologize for the inconvenience.
Please send an email to SR-SRH.Webmaster@noaa.gov with any concerns.


Current Version
Previous Version:    01  02  03  04  05  06  07  08  09  10  11  12  13  14  15  16  17  18  19  20  21  22  23  24  25  26  27  28  29  30  
   31  32  33  34  35  
[Printable]
682
FTUS45 KBOI 221739
TAFJER
TAF
KJER 221739Z 2218/2318 07012KT P6SM VCTS SCT070CB BKN120
     FM222000 25010KT P6SM VCTS SCT050CB OVC100
      TEMPO 2220/2224 6SM TSRA BKN050CB
     FM230000 21010KT P6SM VCSH SCT040 OVC080
     FM231500 25015G25KT P6SM VCSH SCT040 BKN060=


682
FTUS45 KBOI 221739
TAFJER
TAF
KJER 221739Z 2218/2318 07012KT P6SM VCTS SCT070CB BKN120
     FM222000 25010KT P6SM VCTS SCT050CB OVC100
      TEMPO 2220/2224 6SM TSRA BKN050CB
     FM230000 21010KT P6SM VCSH SCT040 OVC080
     FM231500 25015G25KT P6SM VCSH SCT040 BKN060=




U.S. Dept. of Commerce
NOAA National Weather Service
1325 East West Highway
Silver Spring, MD 20910
E-mail: w-nws.webmaster@noaa.gov
Page last modified: May 16, 2007
NATIONAL WEATHER SERVICE: for Safety, for Work, for Fun - FOR LIFE